DW9442 Weather Reports


Display with metric or nautical units.
time (UTC)temp
F
wind
direction
speed
MPH
gust
MPH
rain 1hr
in
rain 24hr
in
rain mn
in
humidity
%
barometer
mb
20260831020028 63 340 0.0 1.0 0.00 0.00 0.00 85 1016.8
20260831014602 63 339 0.0 1.0 0.00 0.00 0.00 85 1016.8
20260831013035 64 339 0.0 1.0 0.00 0.00 0.00 84 1016.9
20260831011559 63 339 1.0 1.0 0.00 0.00 0.00 84 1016.9
20260831010046 64 339 0.0 1.0 0.00 0.00 0.00 82 1016.9
20260831004602 65 339 0.0 1.0 0.00 0.00 0.00 82 1016.8
20260831003032 65 339 0.0 1.0 0.00 0.00 0.00 81 1016.8
20260831001600 65 339 0.0 1.0 0.00 0.00 0.00 82 1016.9
20260831000030 64 339 0.0 1.0 0.00 0.00 0.00 83 1017.1
20260830234615 65 339 0.0 0.0 0.00 0.00 0.00 83 1017.0
20260830233036 65 339 0.0 1.0 0.00 0.00 0.00 82 1016.9
20260830231610 66 20 1.0 1.0 0.00 0.00 0.00 81 1017.1
20260830230031 65 113 0.0 1.0 0.00 0.00 0.00 81 1017.1
20260830224603 66 113 0.0 1.0 0.00 0.00 0.00 80 1017.0
20260830223035 66 115 0.0 1.0 0.00 0.00 0.00 80 1017.1
20260830221508 67 115 0.0 2.0 0.00 0.00 0.00 80 1017.0
20260830220039 68 326 1.0 3.0 0.00 0.00 0.00 75 1017.0
20260830214508 68 310 0.0 2.0 0.00 0.00 0.00 77 1016.9
20260830213049 69 308 0.0 3.0 0.00 0.00 0.00 75 1016.9
20260830211504 70 46 0.0 2.0 0.00 0.00 0.00 74 1016.7
20260830210028 70 49 0.0 3.0 0.00 0.00 0.00 73 1016.6
20260830204600 70 40 1.0 2.0 0.00 0.00 0.00 72 1016.5
20260830203022 70 358 0.0 2.0 0.00 0.00 0.00 71 1016.4
20260830201557 70 360 0.0 1.0 0.00 0.00 0.00 71 1016.4
20260830200024 71 360 0.0 2.0 0.00 0.00 0.00 69 1016.3
20260830194506 71 7 0.0 0.0 0.00 0.00 0.00 70 1016.3
20260830193038 71 7 0.0 2.0 0.00 0.00 0.00 69 1016.3
20260830191523 72 346 1.0 2.0 0.00 0.00 0.00 69 1016.2
20260830190040 72 304 0.0 0.0 0.00 0.00 0.00 68 1016.1
20260830184517 73 304 0.0 2.0 0.00 0.00 0.00 67 1016.0
20260830183042 74 217 0.0 1.0 0.00 0.00 0.00 66 1015.7
20260830181508 75 243 0.0 4.0 0.00 0.00 0.00 63 1015.6
20260830180033 76 279 0.0 3.0 0.00 0.00 0.00 61 1015.4
20260830174507 78 322 2.0 6.0 0.00 0.04 0.00 55 1015.2
20260830173034 79 227 2.0 5.0 0.00 0.04 0.00 54 1015.1
20260830171556 81 274 2.0 7.0 0.00 0.04 0.00 51 1015.0
20260830170027 82 225 3.0 7.0 0.00 0.04 0.00 49 1015.2
20260830164550 83 219 3.0 7.0 0.00 0.04 0.00 49 1015.2
20260830163025 84 175 2.0 5.0 0.00 0.04 0.00 48 1015.1
20260830161620 84 200 1.0 9.0 0.00 0.04 0.00 47 1015.1
20260830160030 84 210 1.0 7.0 0.00 0.04 0.00 47 1015.2
20260830154602 84 229 4.0 8.0 0.00 0.04 0.00 48 1015.1
20260830153032 84 208 4.0 8.0 0.00 0.04 0.00 47 1015.2
20260830151556 85 182 2.0 9.0 0.00 0.04 0.00 47 1015.2
20260830150031 85 216 3.0 8.0 0.00 0.04 0.00 47 1015.2
20260830144548 85 193 3.0 9.0 0.00 0.04 0.00 48 1015.2
20260830143018 85 97 5.0 9.0 0.00 0.04 0.00 47 1015.3
20260830141548 86 143 4.0 8.0 0.00 0.04 0.00 46 1015.3
20260830140016 86 144 1.0 7.0 0.00 0.04 0.00 46 1015.4
20260830134546 86 215 3.0 8.0 0.00 0.04 0.00 46 1015.4
20260830133010 85 216 0.0 5.0 0.00 0.04 0.00 48 1015.5
20260830131524 86 141 1.0 3.0 0.00 0.04 0.00 48 1015.7
20260830130048 85 203 4.0 6.0 0.00 0.04 0.00 49 1015.8
20260830124512 84 210 1.0 4.0 0.00 0.04 0.00 48 1015.9
20260830123042 84 224 4.0 9.0 0.00 0.04 0.00 43 1016.0
20260830121513 84 333 0.0 6.0 0.00 0.04 0.00 45 1016.0
20260830120042 83 284 2.0 5.0 0.00 0.04 0.00 45 1016.0
20260830114512 83 356 0.0 3.0 0.00 0.04 0.00 50 1016.1
20260830113043 83 243 2.0 5.0 0.00 0.04 0.00 47 1016.2
20260830111510 82 235 1.0 6.0 0.00 0.04 0.00 53 1016.3
20260830110046 81 221 2.0 6.0 0.00 0.04 0.00 55 1016.4
20260830104516 81 307 2.0 5.0 0.00 0.04 0.00 54 1016.5
20260830103048 80 309 1.0 4.0 0.00 0.04 0.00 62 1016.7
20260830101535 80 136 1.0 3.0 0.00 0.04 0.00 63 1016.9
20260830100050 79 279 1.0 4.0 0.00 0.04 0.00 66 1017.1
20260830094521 78 126 1.0 3.0 0.00 0.04 0.00 67 1017.2
20260830093056 77 221 1.0 4.0 0.00 0.04 0.00 69 1017.4
20260830091522 77 138 0.0 3.0 0.00 0.04 0.00 71 1017.4
20260830090104 75 3 0.0 4.0 0.00 0.04 0.00 74 1017.6
20260830084528 75 143 2.0 4.0 0.00 0.04 0.00 73 1017.6
20260830083057 74 47 0.0 3.0 0.00 0.04 0.00 74 1017.7
20260830081528 74 172 0.0 3.0 0.00 0.04 0.00 76 1017.7
20260830074525 72 115 1.0 3.0 0.00 0.04 0.00 78 1017.7
20260830073056 71 102 1.0 3.0 0.00 0.04 0.00 80 1017.7
20260830071524 71 113 0.0 2.0 0.00 0.04 0.00 81 1017.7
20260830070056 70 96 0.0 1.0 0.00 0.04 0.00 83 1017.7
20260830064532 67 120 0.0 2.0 0.00 0.04 0.00 87 1017.7
20260830063057 67 101 2.0 4.0 0.00 0.04 0.00 86 1017.7
20260830061535 68 110 0.0 0.0 0.00 0.04 0.00 87 1017.6
20260830060007 66 110 0.0 0.0 0.00 0.04 0.00 88 1017.7
20260830054538 67 318 0.0 0.0 0.00 0.04 0.00 87 1017.6
20260830053102 65 317 0.0 0.0 0.00 0.04 0.00 92 1017.5
20260830051532 63 317 0.0 0.0 0.00 0.04 0.00 93 1017.5
20260830050005 63 317 0.0 0.0 0.00 0.04 0.00 93 1017.4
20260830044542 63 318 0.0 0.0 0.00 0.04 0.00 93 1017.3
20260830043059 63 318 0.0 0.0 0.00 0.04 0.00 93 1017.2
20260830041538 63 343 0.0 0.0 0.00 0.04 0.00 94 1017.2
20260830040101 62 350 0.0 0.0 0.00 0.04 0.00 93 1017.0
20260830034541 63 350 0.0 0.0 0.00 0.04 0.00 92 1017.0
20260830033102 63 350 0.0 0.0 0.00 0.04 0.00 92 1017.0
20260830031530 64 350 0.0 0.0 0.00 0.04 0.00 92 1017.0
20260830030009 64 350 0.0 0.0 0.00 0.04 0.00 92 1017.0
20260830024540 64 350 0.0 0.0 0.00 0.04 0.00 92 1016.9
20260830023018 64 350 0.0 0.0 0.00 0.04 0.00 92 1016.9
20260830021558 64 350 0.0 0.0 0.00 0.04 0.00 91 1017.0